Clarinda
Wednesday 12:15 AM
Temperature55° (55°/55°)
Dew Point55°
Relative Humidity100
%
Visibility10
mi
Pressure1020.3
mb
Wind Direction
Wind SpeedCalm
Precipitation Today0.00"

Last 30 Observations

Time PresWx Temp DP Feels RH% Vsby Pressure Ceiling Direction Speed 1h Precip
11:55 PM 55° 55° 100
%
10
mi
1020.7
mb
Calm 0.00"
11:35 PM 55° 55° 100
%
10
mi
1020.3
mb
Calm 0.00"
11:15 PM 55° 55° 100
%
10
mi
1020.0
mb
Calm 0.00"
10:55 PM 55° 55° 100
%
10
mi
1020.3
mb
Calm 0.00"
10:35 PM 57° 57° 100
%
10
mi
1020.3
mb
Calm 0.00"
10:15 PM 57° 57° 100
%
10
mi
1020.3
mb
Calm 0.00"
9:55 PM 59° 59° 100
%
10
mi
1020.3
mb
Calm 0.00"
9:35 PM 59° 59° 100
%
10
mi
1020.0
mb
Calm 0.00"
9:15 PM 61° 59° 94
%
10
mi
1019.7
mb
SW
230°
3
mph
0.00"
8:55 PM 64° 59° 83
%
10
mi
1019.0
mb
S
170°
3
mph
0.00"
8:35 PM 66° 59° 78
%
10
mi
1019.0
mb
Calm 0.00"
8:15 PM 68° 59° 73
%
10
mi
1019.3
mb
SE
140°
3
mph
0.00"
7:55 PM 70° 59° 69
%
10
mi
1019.0
mb
SE
140°
5
mph
0.00"
7:35 PM 70° 57° 64
%
10
mi
1019.3
mb
Calm 0.00"
7:15 PM 72° 57° 71°60
%
10
mi
1019.7
mb
Calm 0.00"
6:55 PM 73° 57° 73°57
%
10
mi
1019.7
mb
Variable 5
mph
0.00"
6:35 PM 72° 57° 71°60
%
10
mi
1019.7
mb
Calm 0.00"
6:15 PM 73° 55° 73°53
%
10
mi
1020.0
mb
6,500
ft
Calm 0.00"
5:55 PM 75° 55° 75°50
%
10
mi
1020.0
mb
6,500
ft
Calm 0.00"
5:35 PM 75° 55° 75°50
%
10
mi
1020.0
mb
Calm 0.00"
5:15 PM 73° 55° 73°53
%
10
mi
1020.0
mb
Calm 0.00"
4:55 PM 72° 55° 71°57
%
10
mi
1020.3
mb
6,500
ft
Calm 0.00"
4:35 PM 75° 57° 75°54
%
10
mi
1020.3
mb
6,500
ft
Variable 5
mph
0.00"
4:15 PM 73° 54° 73°50
%
10
mi
1020.3
mb
Calm 0.00"
3:55 PM 73° 54° 73°50
%
10
mi
1020.7
mb
E
80°
5
mph
0.00"
3:35 PM 73° 54° 73°50
%
10
mi
1020.7
mb
Calm 0.00"
3:15 PM 73° 55° 73°53
%
10
mi
1020.7
mb
E
80°
5
mph
0.00"
2:55 PM 73° 54° 73°50
%
10
mi
1021.0
mb
Calm 0.00"
2:35 PM 75° 54° 75°47
%
10
mi
1021.3
mb
Calm 0.00"
2:15 PM 73° 55° 73°53
%
10
mi
1021.3
mb
6
mph
0.00"